Temp
-13 -13 -13 -13 -13 -13 -12 -12 -12 -13 -13 -13 -13 -13 -13 -13 -13 -12 -12 -12 -12 -12 -12 -12 -11 -11 -11 -11 -11 -11 -11 -11 -11 -11 -11 -11 -11 -10 -11 -11 -10 -10 -10 -10 -9
-13 -13 -13 -13 -13 -12 -12 -12 -13 -13 -13 -13 -13 -13 -13 -13 -13 -13 -12 -12 -12 -12 -12 -12 -12 -12 -11 -11 -11 -11 -12 -11 -11 -11 -11 -11 -11 -11 -11 -11 -10 -10 -10 -10 -10
-13 -13 -13 -13 -13 -12 -13 -13 -13 -13 -13 -13 -13 -13 -13 -13 -13 -13 -13 -13 -12 -12 -12 -12 -12 -12 -12 -12 -12 -12 -12 -12 -12 -12 -12 -12 -12 -11 -11 -12 -11 -11 -10 -10 -10
-13 -13 -13 -13 -13 -13 -13 -13 -13 -13 -14 -14 -14 -14 -14 -13 -13 -13 -13 -13 -13 -13 -13 -13 -13 -13 -13 -12 -13 -13 -13 -13 -12 -12 -12 -12 -12 -12 -12 -11 -11 -11 -11 -11 -10
-14 -13 -13 -13 -13 -13 -13 -14 -14 -14 -14 -14 -14 -14 -14 -14 -14 -14 -13 -13 -13 -13 -13 -13 -13 -13 -13 -13 -13 -13 -13 -13 -13 -13 -13 -12 -13 -12 -13 -12 -12 -11 -11 -11 -10
-15 -14 -14 -14 -14 -14 -14 -14 -14 -14 -15 -14 -14 -14 -14 -14 -14 -14 -14 -14 -13 -14 -14 -13 -13 -13 -13 -13 -13 -13 -13 -13 -13 -13 -13 -12 -14 -13 -14 -12 -11 -11 -11 -11 -11
-14 -15 -14 -14 -14 -14 -14 -14 -15 -15 -15 -14 -14 -14 -14 -14 -14 -14 -14 -14 -14 -14 -14 -14 -13 -14 -13 -14 -14 -13 -14 -14 -14 -13 -13 -13 -14 -14 -14 -13 -12 -12 -12 -12 -11
-15 -15 -15 -15 -15 -15 -15 -15 -15 -15 -15 -15 -15 -14 -14 -14 -14 -14 -14 -14 -14 -14 -14 -14 -14 -14 -14 -14 -14 -14 -14 -14 -14 -13 -14 -14 -13 -14 -14 -13 -13 -13 -12 -12 -12
-14 -15 -15 -15 -15 -15 -15 -15 -15 -15 -15 -15 -15 -15 -15 -14 -14 -14 -14 -14 -14 -14 -14 -14 -14 -14 -14 -14 -14 -14 -14 -14 -14 -14 -14 -14 -13 -14 -14 -14 -13 -13 -13 -12 -12
-14 -14 -15 -15 -15 -15 -15 -15 -15 -15 -15 -15 -15 -15 -15 -15 -15 -14 -14 -14 -14 -14 -14 -14 -14 -14 -14 -14 -14 -14 -14 -14 -14 -14 -14 -14 -14 -14 -14 -14 -13 -13 -13 -13 -13
-15 -15 -15 -15 -15 -15 -15 -15 -15 -15 -15 -15 -15 -15 -15 -15 -15 -15 -15 -15 -15 -15 -15 -15 -15 -15 -15 -15 -15 -15 -15 -15 -15 -15 -15 -15 -15 -15 -14 -14 -13 -14 -15 -15 -16
-15 -15 -15 -15 -15 -15 -15 -15 -15 -15 -15 -15 -15 -15 -15 -15 -15 -15 -15 -15 -15 -15 -15 -15 -15 -15 -15 -15 -15 -15 -15 -15 -15 -15 -15 -15 -15 -16 -15 -15 -15 -16 -17 -17 -17
-15 -15 -15 -15 -15 -15 -15 -15 -15 -15 -15 -15 -15 -15 -15 -15 -15 -15 -15 -15 -15 -15 -15 -15 -15 -15 -15 -15 -15 -16 -15 -15 -15 -15 -16 -15 -14 -16 -16 -17 -17 -17 -17 -18 -18
-16 -16 -15 -15 -15 -15 -15 -15 -15 -15 -15 -15 -15 -15 -15 -15 -15 -15 -15 -15 -16 -15 -15 -16 -16 -16 -16 -16 -16 -16 -16 -16 -16 -15 -16 -16 -15 -16 -17 -18 -18 -18 -18 -18 -18
-16 -16 -16 -16 -16 -16 -15 -15 -15 -15 -15 -15 -15 -15 -15 -15 -16 -16 -16 -16 -16 -16 -16 -16 -16 -16 -16 -16 -16 -16 -16 -16 -16 -16 -16 -16 -16 -17 -17 -18 -18 -18 -19 -19 -19
-17 -17 -16 -16 -16 -16 -16 -16 -16 -16 -15 -16 -16 -16 -16 -16 -16 -16 -16 -16 -16 -16 -16 -16 -16 -16 -16 -16 -16 -16 -16 -16 -16 -16 -16 -17 -17 -17 -17 -17 -18 -18 -18 -18 -18
-18 -18 -18 -17 -17 -17 -17 -16 -16 -16 -16 -16 -16 -16 -16 -16 -16 -16 -16 -17 -16 -16 -16 -16 -16 -16 -17 -17 -17 -17 -17 -17 -16 -16 -16 -17 -17 -18 -18 -18 -18 -18 -18 -18 -18
-19 -18 -18 -18 -18 -17 -17 -18 -17 -17 -17 -16 -17 -17 -17 -17 -17 -16 -17 -17 -17 -17 -16 -16 -16 -16 -17 -17 -17 -17 -17 -17 -17 -17 -16 -16 -17 -18 -18 -18 -18 -19 -19 -19 -19
-19 -18 -18 -19 -19 -19 -18 -18 -18 -17 -17 -17 -17 -17 -17 -17 -17 -17 -17 -17 -17 -17 -17 -17 -16 -16 -17 -17 -17 -17 -17 -17 -17 -17 -17 -16 -17 -19 -18 -18 -19 -19 -19 -18 -18
-19 -19 -18 -18 -19 -19 -19 -18 -19 -18 -18 -18 -18 -18 -18 -18 -18 -17 -17 -17 -17 -17 -17 -17 -16 -16 -17 -17 -17 -17 -18 -18 -18 -18 -17 -17 -17 -19 -18 -18 -18 -19 -19 -18 -19
-19 -18 -19 -19 -20 -19 -19 -19 -19 -19 -19 -19 -19 -19 -19 -19 -19 -18 -17 -18 -18 -18 -18 -17 -17 -16 -16 -17 -18 -17 -18 -18 -18 -18 -18 -18 -16 -19 -19 -19 -19 -19 -20 -20 -20
-18 -18 -19 -20 -20 -19 -19 -20 -19 -20 -20 -19 -19 -19 -19 -20 -19 -19 -18 -18 -18 -18 -18 -18 -17 -16 -16 -17 -18 -18 -18 -18 -18 -18 -18 -18 -16 -19 -20 -19 -19 -20 -20 -20 -21
-18 -19 -19 -20 -19 -20 -20 -20 -20 -20 -20 -20 -20 -20 -20 -21 -20 -19 -19 -18 -18 -18 -17 -17 -17 -17 -17 -17 -17 -17 -18 -19 -19 -18 -18 -18 -17 -19 -19 -19 -20 -19 -19 -20 -21
-18 -18 -19 -19 -19 -20 -20 -20 -20 -20 -21 -20 -20 -20 -21 -21 -20 -19 -19 -19 -19 -18 -18 -18 -17 -17 -17 -17 -17 -17 -18 -19 -19 -19 -19 -18 -18 -18 -19 -19 -19 -19 -20 -20 -21
-19 -19 -19 -20 -20 -21 -21 -21 -21 -21 -21 -21 -21 -21 -20 -20 -19 -19 -19 -20 -19 -18 -18 -18 -18 -18 -17 -17 -18 -17 -17 -19 -19 -19 -19 -18 -19 -18 -18 -18 -19 -19 -20 -20 -21
-20 -20 -20 -20 -20 -20 -20 -20 -20 -21 -20 -21 -21 -21 -21 -20 -20 -20 -19 -19 -19 -18 -18 -18 -18 -18 -17 -18 -18 -17 -18 -18 -19 -19 -19 -18 -18 -18 -18 -19 -20 -19 -19 -20 -20
-21 -21 -21 -20 -21 -21 -20 -20 -21 -21 -21 -21 -21 -21 -21 -21 -20 -20 -19 -19 -18 -18 -19 -18 -18 -18 -17 -18 -18 -18 -19 -19 -18 -19 -19 -18 -18 -18 -19 -19 -19 -19 -19 -19 -20
Height
5818 5818 5818 5817 5818 5818 5817 5816 5817 5817 5817 5817 5817 5817 5816 5816 5815 5814 5814 5813 5811 5810 5809 5808 5807 5805 5804 5803 5802 5801 5801 5799 5798 5797 5796 5794 5793 5792 5793 5792 5790 5790 5791 5792 5791
5816 5816 5815 5814 5814 5814 5813 5813 5814 5814 5814 5815 5815 5814 5814 5813 5812 5811 5811 5809 5808 5807 5806 5804 5802 5801 5800 5798 5796 5795 5794 5792 5792 5791 5790 5788 5787 5786 5785 5784 5782 5783 5781 5782 5782
5813 5813 5812 5811 5811 5810 5810 5810 5811 5811 5811 5812 5812 5811 5810 5810 5810 5808 5807 5807 5805 5803 5802 5800 5798 5796 5794 5792 5790 5788 5787 5785 5784 5784 5783 5783 5780 5778 5778 5777 5776 5775 5772 5772 5773
5810 5809 5809 5809 5808 5807 5807 5807 5807 5808 5808 5808 5808 5808 5807 5807 5808 5806 5804 5803 5801 5799 5798 5796 5794 5792 5789 5787 5785 5783 5781 5779 5778 5776 5775 5774 5773 5771 5766 5767 5767 5766 5765 5764 5762
5806 5806 5806 5805 5804 5804 5804 5804 5804 5805 5805 5805 5805 5804 5804 5804 5804 5803 5801 5800 5798 5797 5795 5792 5791 5789 5787 5784 5782 5778 5776 5774 5772 5770 5767 5766 5764 5761 5757 5756 5755 5754 5753 5752 5752
5803 5802 5802 5801 5801 5801 5802 5801 5802 5802 5802 5802 5802 5801 5800 5801 5800 5799 5798 5796 5795 5793 5792 5790 5788 5785 5783 5781 5779 5776 5773 5770 5767 5764 5761 5760 5757 5752 5748 5746 5744 5742 5741 5740 5738
5800 5799 5798 5798 5798 5797 5798 5798 5798 5799 5799 5799 5798 5798 5797 5798 5797 5796 5795 5793 5791 5790 5788 5787 5785 5783 5780 5778 5775 5773 5770 5765 5762 5759 5756 5752 5752 5744 5739 5737 5734 5731 5728 5726 5725
5797 5796 5795 5794 5795 5795 5794 5794 5794 5795 5795 5795 5795 5794 5794 5794 5793 5792 5790 5789 5788 5786 5784 5782 5780 5778 5776 5773 5770 5768 5767 5764 5757 5753 5749 5743 5743 5737 5731 5726 5724 5718 5715 5713 5710
5792 5792 5791 5790 5790 5791 5791 5791 5790 5790 5791 5791 5791 5791 5791 5789 5789 5788 5787 5785 5783 5782 5779 5777 5776 5773 5772 5769 5766 5763 5760 5755 5752 5746 5740 5732 5729 5722 5717 5715 5710 5706 5700 5696 5694
5785 5785 5786 5786 5785 5785 5786 5786 5786 5786 5786 5786 5786 5787 5786 5785 5784 5784 5782 5781 5779 5777 5775 5773 5770 5768 5766 5763 5760 5756 5753 5748 5742 5738 5735 5728 5722 5711 5705 5699 5695 5691 5686 5682 5679
5777 5778 5778 5779 5779 5779 5780 5780 5782 5782 5781 5781 5780 5780 5780 5780 5779 5778 5777 5776 5774 5772 5770 5768 5766 5762 5760 5757 5753 5750 5746 5741 5735 5730 5727 5720 5711 5700 5696 5688 5681 5674 5670 5667 5664
5767 5768 5769 5771 5772 5772 5772 5772 5773 5775 5775 5774 5774 5775 5775 5774 5774 5773 5772 5771 5768 5767 5764 5763 5760 5757 5753 5751 5747 5742 5738 5733 5729 5722 5715 5712 5705 5689 5683 5674 5668 5665 5662 5657 5654
5756 5758 5759 5760 5762 5764 5765 5765 5766 5766 5766 5768 5767 5768 5769 5769 5767 5767 5765 5764 5762 5761 5758 5756 5754 5751 5748 5744 5740 5735 5731 5726 5721 5717 5709 5703 5700 5685 5674 5666 5661 5656 5652 5648 5646
5745 5747 5749 5751 5753 5753 5755 5756 5757 5758 5756 5760 5760 5761 5761 5761 5760 5759 5758 5758 5756 5754 5752 5750 5748 5745 5741 5737 5734 5730 5725 5720 5714 5708 5702 5691 5684 5675 5668 5663 5656 5651 5647 5643 5639
5733 5735 5737 5740 5741 5743 5746 5747 5748 5749 5746 5750 5752 5753 5753 5754 5753 5752 5751 5749 5749 5747 5746 5744 5741 5738 5735 5730 5727 5723 5718 5713 5708 5702 5695 5685 5677 5664 5659 5658 5652 5645 5639 5634 5629
5720 5723 5726 5729 5731 5732 5734 5737 5739 5740 5738 5741 5743 5744 5746 5746 5745 5744 5744 5743 5741 5740 5738 5736 5734 5731 5727 5723 5719 5716 5712 5706 5701 5694 5688 5679 5668 5662 5651 5646 5643 5637 5630 5623 5615
5706 5709 5714 5717 5720 5723 5724 5727 5729 5727 5731 5732 5734 5735 5737 5736 5736 5735 5735 5735 5733 5731 5731 5729 5727 5724 5721 5717 5713 5709 5703 5697 5693 5687 5681 5673 5664 5654 5646 5639 5632 5625 5618 5610 5603
5691 5696 5702 5706 5708 5710 5714 5717 5716 5719 5722 5723 5724 5726 5726 5726 5726 5726 5726 5726 5725 5723 5721 5720 5720 5717 5714 5710 5706 5702 5697 5690 5682 5678 5674 5670 5661 5649 5641 5633 5625 5615 5607 5598 5590
5680 5685 5690 5692 5695 5698 5702 5703 5707 5710 5711 5714 5715 5715 5716 5716 5717 5717 5717 5717 5717 5716 5716 5712 5712 5709 5707 5703 5700 5695 5691 5685 5678 5673 5664 5659 5654 5644 5634 5626 5617 5609 5599 5588 5577
5667 5673 5676 5679 5683 5686 5687 5692 5697 5700 5702 5703 5704 5705 5704 5706 5707 5707 5707 5708 5708 5708 5706 5706 5703 5702 5700 5697 5693 5689 5684 5679 5672 5664 5656 5651 5646 5634 5627 5620 5611 5600 5588 5577 5566
5654 5659 5664 5667 5672 5673 5673 5682 5688 5688 5690 5691 5693 5693 5694 5694 5696 5696 5697 5698 5698 5698 5698 5696 5695 5696 5693 5691 5686 5682 5678 5674 5668 5660 5651 5637 5640 5628 5617 5609 5601 5591 5579 5566 5555
5643 5647 5652 5656 5661 5661 5664 5670 5674 5678 5677 5679 5680 5682 5682 5683 5684 5685 5687 5687 5687 5688 5687 5686 5686 5686 5685 5683 5680 5675 5671 5667 5660 5656 5650 5637 5632 5623 5610 5604 5593 5584 5572 5561 5549
5632 5636 5641 5645 5648 5651 5655 5657 5659 5661 5665 5666 5668 5670 5671 5672 5673 5674 5675 5676 5677 5677 5676 5677 5676 5676 5677 5676 5673 5668 5665 5661 5654 5648 5647 5634 5622 5618 5608 5600 5591 5579 5569 5558 5548
5626 5628 5632 5635 5638 5641 5643 5644 5646 5648 5651 5652 5654 5655 5657 5659 5661 5663 5665 5665 5667 5668 5667 5666 5667 5667 5667 5667 5665 5662 5658 5656 5649 5643 5637 5634 5618 5613 5604 5596 5587 5576 5568 5559 5550
5618 5620 5623 5625 5626 5629 5631 5632 5634 5636 5637 5638 5639 5640 5642 5644 5648 5652 5654 5657 5658 5658 5657 5658 5658 5658 5658 5658 5657 5654 5653 5650 5644 5640 5630 5627 5618 5607 5599 5591 5582 5574 5565 5560 5553
5608 5611 5614 5614 5615 5616 5616 5620 5621 5621 5623 5624 5626 5627 5629 5631 5636 5640 5642 5645 5646 5647 5647 5647 5648 5649 5649 5649 5647 5646 5646 5643 5639 5635 5629 5622 5613 5605 5597 5588 5581 5572 5565 5560 5555
5600 5600 5602 5605 5605 5606 5607 5608 5609 5611 5612 5613 5616 5618 5619 5622 5623 5626 5630 5634 5636 5637 5637 5638 5638 5638 5640 5639 5638 5639 5639 5636 5633 5630 5625 5619 5611 5603 5598 5590 5581 5571 5563 5559 5558
Wind_Speed
11 12 12 11 14 13 13 11 13 10 10 9 8 8 9 11 11 12 13 13 15 15 16 17 19 19 21 21 21 21 23 24 23 22 24 26 28 29 27 28 33 33 33 34 35
13 13 13 13 12 12 11 11 11 11 10 9 9 10 12 12 13 14 14 14 15 17 19 21 22 22 23 23 24 24 24 24 25 25 25 28 29 30 30 33 35 34 37 36 37
15 15 15 13 14 12 12 13 12 11 10 10 11 12 13 13 14 14 15 16 18 19 21 22 23 23 25 25 24 25 25 25 27 27 28 29 31 33 34 34 35 37 39 40 39
18 17 16 16 14 13 11 11 11 11 11 12 13 13 14 14 15 14 15 15 17 17 16 15 15 16 17 19 21 22 24 25 27 30 31 31 32 33 37 38 38 39 40 42 45
22 21 17 15 13 12 11 12 12 13 13 14 13 13 14 15 13 12 12 13 13 12 12 13 13 14 15 15 16 18 21 23 26 28 31 33 34 35 38 42 42 43 45 46 46
13 15 14 14 13 13 13 13 13 13 13 13 13 13 14 12 8 8 9 10 11 12 13 14 15 16 16 17 17 18 20 22 25 27 29 31 32 37 39 43 45 47 48 49 50
10 11 12 13 14 14 15 15 14 13 12 10 12 12 9 8 7 7 9 11 12 13 14 14 15 16 17 17 18 19 21 24 25 28 28 32 29 34 39 42 47 49 51 51 52
18 15 11 12 14 14 14 13 12 11 12 13 16 10 9 9 9 10 12 12 11 14 16 16 17 18 20 21 22 23 24 25 29 31 32 36 35 35 39 44 45 48 50 52 53
24 22 19 18 17 15 16 16 18 18 19 19 14 13 13 14 12 11 13 14 15 17 18 20 20 22 22 23 25 27 30 32 32 34 37 42 43 43 44 43 46 47 50 51 52
28 27 26 24 23 22 21 22 22 22 22 21 19 19 19 18 15 15 16 17 17 19 20 21 23 24 25 27 29 30 31 33 36 37 37 39 44 48 50 51 49 46 47 46 47
36 33 31 29 29 28 26 25 24 22 19 22 23 21 20 21 18 18 20 21 19 20 19 20 22 24 26 28 30 32 32 33 36 39 40 42 47 52 51 49 46 43 40 37 33
38 38 37 36 34 32 31 30 28 27 26 24 22 20 18 19 21 23 23 22 22 22 21 23 24 25 27 30 31 34 35 36 38 42 45 45 47 52 50 45 41 36 32 31 30
44 40 39 39 38 38 36 34 32 30 29 27 27 25 25 25 25 25 26 24 24 23 23 25 27 28 30 32 33 36 37 38 41 41 44 48 47 48 48 39 34 34 31 31 29
46 45 41 39 40 39 39 36 35 33 35 31 29 28 28 28 28 25 24 25 26 25 26 27 29 30 32 33 35 37 37 40 41 44 46 52 55 49 41 31 28 31 32 32 34
50 46 45 38 39 41 39 38 37 37 41 36 31 29 27 25 25 25 27 27 27 28 28 29 30 31 33 35 36 37 38 40 40 42 45 50 54 44 38 28 31 31 31 30 31
48 49 45 41 41 40 39 39 38 39 41 36 32 29 28 29 29 29 29 30 30 30 30 30 31 32 34 35 37 37 38 40 42 43 45 48 52 38 38 40 36 36 32 39 44
46 48 45 45 44 40 38 38 40 42 40 38 35 33 31 31 32 34 34 32 32 33 31 31 31 32 33 35 37 39 41 42 43 44 44 46 47 36 37 42 42 40 42 48 42
54 52 49 46 41 46 41 41 44 42 40 39 37 36 34 34 35 35 35 34 33 32 33 33 32 33 35 37 38 40 41 43 45 46 46 44 44 34 35 43 45 45 53 45 48
60 54 50 48 46 46 46 50 45 42 41 39 37 38 38 38 38 37 36 35 33 32 33 34 33 34 35 36 38 39 40 42 44 46 49 49 45 34 36 44 47 47 51 48 47
58 54 53 48 45 47 50 48 44 42 42 41 41 42 44 44 44 42 39 39 35 33 34 33 36 36 37 37 37 39 40 41 44 48 50 49 48 36 38 43 49 51 48 51 48
49 53 48 44 44 49 52 47 44 45 46 46 44 46 48 49 51 45 42 38 37 36 34 35 37 36 37 38 38 40 41 39 41 45 48 55 50 39 42 46 51 52 52 39 43
41 37 39 46 49 52 53 51 50 50 51 51 50 48 48 54 52 43 42 38 39 38 38 38 37 37 37 37 37 40 38 37 39 43 44 49 49 41 42 46 52 54 38 37 37
34 35 37 42 50 50 48 46 49 49 50 53 55 55 57 54 51 45 42 40 39 39 40 38 40 39 37 37 36 39 37 33 37 42 40 48 52 41 42 44 47 48 33 33 33
34 38 40 45 48 47 47 48 50 50 50 52 52 55 57 52 50 46 41 39 37 39 40 40 41 39 38 37 36 36 37 28 34 39 42 41 50 42 44 43 45 42 27 29 24
32 36 40 41 44 48 49 52 53 54 55 57 54 51 53 58 49 46 38 35 38 39 40 41 41 39 40 38 37 35 35 26 31 34 42 43 40 44 43 40 44 47 17 20 15
32 31 31 35 38 39 43 47 51 53 49 47 43 43 40 43 45 44 40 39 39 39 41 42 42 41 40 39 38 36 34 31 29 30 37 41 38 39 40 40 41 45 22 8 7
32 35 35 31 31 34 37 37 33 35 37 38 38 39 39 36 38 38 39 40 40 40 43 43 43 42 39 38 37 34 30 28 28 27 34 37 34 36 35 36 40 43 21 13 10
Wind_Direction
266 259 262 280 266 275 278 266 264 253 252 247 251 264 273 284 289 293 297 302 304 305 302 300 301 302 299 297 295 291 285 281 278 278 276 275 276 274 271 267 267 264 267 263 260
266 267 269 268 271 268 265 264 255 249 243 250 264 271 280 291 298 305 307 308 306 302 300 300 303 300 294 293 293 290 287 283 280 277 274 274 272 271 272 270 268 268 267 265 264
270 271 272 267 262 255 258 248 249 246 252 262 263 270 284 296 304 306 307 306 306 308 310 307 303 301 298 295 292 291 290 288 284 280 275 273 274 273 268 265 266 267 269 269 265
273 273 274 275 267 253 245 240 243 250 257 263 272 281 292 297 304 307 309 313 317 319 319 322 322 321 316 312 306 299 294 291 289 287 285 282 279 279 278 272 267 267 264 264 267
274 272 270 266 258 249 239 239 242 252 258 264 273 278 287 294 301 306 311 317 322 326 335 339 340 342 343 338 334 326 316 307 298 292 291 288 288 284 282 276 275 271 269 267 264
281 274 263 254 253 253 250 249 252 255 262 270 275 281 286 289 295 307 311 319 326 328 328 331 336 342 344 340 339 338 335 330 322 314 305 297 298 293 288 282 277 273 270 270 269
275 268 265 259 255 250 251 251 253 260 265 267 276 282 270 270 280 300 326 331 326 324 324 326 329 332 334 337 332 334 337 331 325 316 313 305 308 296 289 283 280 279 277 275 273
262 257 256 258 269 256 248 247 249 248 254 267 276 242 258 265 276 298 315 326 324 325 326 326 326 328 332 330 329 329 324 319 320 318 318 312 312 309 297 289 283 279 276 274 272
263 260 253 253 254 257 251 255 260 261 262 267 262 254 266 271 276 294 306 314 317 317 318 319 319 320 323 324 322 321 322 322 324 323 323 320 317 318 309 300 291 285 281 278 276
257 259 258 253 255 256 254 256 261 262 263 260 256 262 262 265 272 287 294 299 305 310 310 312 313 314 316 317 318 320 321 323 326 324 327 324 322 317 314 307 301 294 284 277 273
260 258 256 258 255 253 254 258 258 262 268 259 259 266 258 262 268 278 285 292 296 302 303 306 310 311 313 314 317 318 324 325 326 327 329 328 330 326 322 314 306 298 295 293 289
259 259 258 257 257 260 258 252 252 257 261 265 263 260 259 266 272 279 284 286 290 295 300 303 304 307 310 312 315 318 323 323 324 327 331 332 334 332 328 319 308 309 313 305 298
259 256 257 257 257 258 259 259 259 256 256 261 266 268 268 268 273 278 280 281 287 291 295 299 302 306 309 312 316 317 321 322 322 323 331 330 332 334 328 318 319 316 311 303 295
259 256 253 256 257 258 259 258 258 258 260 259 259 266 270 271 271 271 272 278 285 288 291 294 299 306 308 311 315 317 320 321 320 325 330 336 336 335 331 326 315 313 308 300 293
253 257 256 255 257 257 258 258 256 257 261 263 262 262 266 268 268 270 274 276 280 285 288 293 299 305 306 307 312 316 319 318 321 325 332 337 336 335 334 332 319 310 305 303 296
247 251 255 252 256 257 257 258 256 256 258 261 264 263 265 268 270 272 274 278 279 282 288 292 296 300 303 306 311 314 317 317 321 325 334 339 336 336 334 330 328 324 311 310 305
244 244 249 250 252 256 258 257 255 255 257 259 262 266 267 267 268 271 274 277 279 282 285 289 292 295 300 304 308 313 317 319 322 326 334 338 338 335 332 331 329 327 316 309 309
238 248 252 245 252 252 251 252 253 255 257 259 263 265 267 269 270 272 275 277 278 281 285 288 291 294 298 302 305 311 315 320 323 325 328 334 340 333 326 329 330 329 321 316 314
244 247 253 245 244 248 252 253 251 255 259 261 263 264 265 269 271 270 271 274 275 277 280 283 285 290 295 300 304 308 313 316 321 321 326 335 343 330 323 327 330 326 322 315 314
251 250 251 245 240 244 251 254 250 257 261 262 264 265 267 267 270 267 269 271 275 275 275 279 282 287 293 300 303 307 310 316 319 320 325 334 346 321 318 326 331 329 327 318 313
249 248 240 237 240 241 250 254 247 253 255 258 260 264 267 267 270 265 268 273 273 271 273 277 281 290 296 302 302 304 307 311 314 317 324 329 348 330 320 326 333 333 332 336 334
248 244 243 236 239 244 252 256 254 249 253 257 258 262 268 272 267 266 267 270 270 271 275 276 284 290 294 298 300 302 304 309 313 315 323 324 344 338 319 327 332 336 335 342 339
260 259 251 243 245 250 256 255 254 256 254 257 256 259 261 266 267 261 263 266 270 274 275 281 285 290 292 297 300 300 304 308 308 312 327 319 331 334 322 328 333 339 348 346 345
262 257 255 250 248 247 251 254 257 260 261 264 266 262 261 263 264 261 257 262 268 273 277 281 283 288 291 292 295 297 298 305 302 310 314 329 327 327 329 333 333 342 354 346 353
257 257 254 255 254 251 252 256 259 262 263 264 265 267 261 258 262 266 260 261 263 266 272 276 280 283 285 290 293 293 295 299 298 309 311 325 326 328 332 332 338 337 6 345 347
260 258 255 254 257 260 261 261 259 260 258 261 263 264 261 258 261 256 256 256 262 267 269 273 277 280 283 288 291 289 295 297 298 305 312 322 328 328 331 334 336 338 341 4 22
262 262 263 260 254 253 257 258 257 253 255 254 258 259 262 263 258 256 259 260 264 269 273 276 279 281 280 281 285 286 295 292 291 302 310 323 327 328 332 331 337 337 342 31 24